Regional Weather Roundup
Issued by NWS Charleston, WV

Home | Current Version | Previous Version | Graphics & Text | Print | Product List | Glossary On
Versions: 1 2 3 4 5 6 7 8 9 10 11 12 13 14 15 16 17 18 19 20 21 22 23 24 25 26 27 28 29 30 31 32 33 34 35 36 37 38 39 40 41 42 43 44 45 46 47 48 49 50
000
ASUS41 KRLX 231110
RWRRLX
West Virginia Regional Weather Roundup
National Weather Service Charleston WV
600 AM EST THU FEB 23 2017

Note: "fair" indicates few or no clouds below 12,000 feet with no
significant weather and/or obstructions to visibility.

WVZ003-231200-
Northern Panhandle of West Virginia

CITY           SKY/WX    TMP DP  RH WIND       PRES   REMARKS
WHEELING       CLOUDY    55  52  89 S7        29.81S
$$

WVZ009-231200-
Northwest West Virginia

CITY           SKY/WX    TMP DP  RH WIND       PRES   REMARKS
PARKERSBURG    CLOUDY    56  53  90 S8        29.86R
$$

WVZ006-231200-
Western West Virginia

CITY           SKY/WX    TMP DP  RH WIND       PRES   REMARKS
HUNTINGTON     PTCLDY    52  50  93 S6        29.86R
$$

WVZ015-231200-
West Central West Virginia

CITY           SKY/WX    TMP DP  RH WIND       PRES   REMARKS
CHARLESTON     PTCLDY    48  46  93 CALM      29.86S FOG
$$

WVZ022-031-231200-
North Central West Virginia

CITY           SKY/WX    TMP DP  RH WIND       PRES   REMARKS
CLARKSBURG     CLOUDY    54  52  93 CALM      29.86R
MORGANTOWN     CLOUDY    56  52  86 S6        29.86R
$$

WVZ025-035-042-045-231200-
Southern West Virginia

CITY           SKY/WX    TMP DP  RH WIND       PRES   REMARKS
BECKLEY        CLOUDY    51  49  92 S3        29.92R
LOGAN          MOCLDY    52  52 100 CALM      29.88S
BLUEFIELD      CLOUDY    50  46  86 CALM      29.94R
LEWISBURG      FOG       45  45 100 CALM      29.94R VSB 1/4
$$

WVZ047-231200-
Northern Mountains of West Virginia

CITY           SKY/WX    TMP DP  RH WIND       PRES   REMARKS
ELKINS         CLOUDY    51  49  92 CALM      29.90R FOG
$$

WVZ052-231200-
Eastern Panhandle of West Virginia

CITY           SKY/WX    TMP DP  RH WIND       PRES   REMARKS
MARTINSBURG    PTCLDY    48  45  89 CALM      29.86R
PETERSBURG     MOCLDY    54  50  89 S3        29.87F
$$



USA.gov is the U.S. government's official web portal to all federal, state and local government web resources and services.